Tracking 29042 objects as of 22-Jun-2024
HD Live streaming from Space Station
objects crossing your sky now

STARLINK-31814

Track STARLINK-31814 now!
10-day predictions
STARLINK-31814 is classified as:


NORAD ID: 59802
Int'l Code: 2024-093W
Perigee: 430.3 km
Apogee: 431.8 km
Inclination: 43.0 °
Period: 93.1 minutes
Semi major axis: 6802 km
RCS: Unknown
Launch date: May 18, 2024
Source: United States (US)
Launch site: AIR FORCE EASTERN TEST RANGE (AFETR)
Your satellite tracking list
Your tracking list is empty




NASA's NSSDC Master Catalog

Two Line Element Set (TLE):
1 59802U 24093W   24173.91667824 -.00890029  00000-0 -18320-1 0  9997
2 59802  42.9993 170.2442 0001166 278.9686 155.6997 15.47542659  6176
Source of the keplerian elements: AFSPC